Simultaneous Nadir Overpasses (SNOs) Predictions

Prediction of SNOs between FY3D and LANDSAT-8 Satellite Orbit:

Table of predicted SNOs for the next 14.0 days since TLE Epoch: 6/14/2024
Index Date (FY3D) Time (FY3D) Lat,Lon (FY3D) SZA (FY3D ) Date (LANDSAT-8) Time (LANDSAT-8) Lat,Lon (LANDSAT-8) SZA (LANDSAT-8 ) Distance(km) Time Diff (sec)
1 06/16/2024 05:29:18 -74.44, -78.50 128.97 06/16/2024 05:29:40 -74.42, -78.49 128.99 2.39 22
2 06/16/2024 06:20:02 74.36, 89.02 50.95 06/16/2024 06:19:07 74.35, 88.97 50.93 2.64 55
3 06/18/2024 20:55:59 74.46,-130.17 50.99 06/18/2024 20:56:43 74.49,-130.10 51.01 3.30 44
4 06/18/2024 21:46:43 -74.41, 37.28 129.07 06/18/2024 21:46:12 -74.42, 37.38 129.06 3.05 31
5 06/21/2024 12:22:39 -74.47, 178.19 129.02 06/21/2024 12:23:49 -74.48, 178.13 129.01 2.30 70
6 06/21/2024 13:13:24 74.44, -14.42 50.95 06/21/2024 13:13:15 74.45, -14.31 50.96 3.59 9
7 06/21/2024 14:04:00 -74.00, 154.04 129.47 06/21/2024 14:02:50 -74.08, 152.45 129.43 49.31 70
8 06/24/2024 04:40:04 -74.46, -66.08 129.00 06/24/2024 04:40:20 -74.48, -66.01 128.98 2.65 16
9 06/24/2024 05:30:48 74.38, 101.44 50.93 06/24/2024 05:29:47 74.39, 101.42 50.93 0.84 61
10 06/26/2024 20:06:44 74.51,-117.83 51.14 06/26/2024 20:07:21 74.50,-117.71 51.13 3.76 37
11 06/26/2024 20:57:27 -74.41, 49.76 128.96 06/26/2024 20:56:50 -74.44, 49.78 128.94 3.47 37



Historial Predications of SNOs between FY3D and LANDSAT-8
